Location: Village de las Huertas
(35.3014°N, 106.4095°W)
Time: 09:23:23
(UTC+00:00)

SKYMED 2 - Pass Details

Date: 29 October 2020
Orbit: 621 x 623 km, 97.9° (Epoch: 04 December)

Event Time Altitude Azimuth Distance (km) Brightness Sun altitude
Rises 12:32:00 0° 172° (S) 2,887 7.2 -11.4°
Reaches altitude 10° 12:34:11 10° 175° (S) 1,986 6.3 -10.9°
Maximum altitude 12:38:29 70° 258° (WSW) 666 3.5 -10.0°
Drops below altitude 10° 12:42:50 10° 343° (NNW) 1,999 5.9 -9.2°
Sets 12:45:03 0° 346° (NNW) 2,910 6.8 -8.7°
